Location: Foligno
(42.9600°N, 12.7050°E)
Time: 08:47:59
(UTC+02:00)

ISS - Pass Details

Date: 17 July 2018
Orbit: 402 x 408 km, 51.6° (Epoch: 16 July)

Event Time Altitude Azimuth Distance (km) Brightness Sun altitude
Rises 04:51:05 0° 305° (NW) 2,332 -0.1 -8.9°
Reaches altitude 10° 04:53:14 10° 313° (NW) 1,470 -1.1 -8.6°
Maximum altitude 04:56:24 42° 26° (NNE) 594 -2.4 -8.2°
Drops below altitude 10° 04:59:33 10° 99° (E) 1,466 -0.3 -7.7°
Sets 05:01:42 0° 107° (ESE) 2,324 0.6 -7.4°
